Location: Unspecified
(0.0000°N, 0.0000°E)
Time: 10:16:59
(UTC+02:00)

HO-68 - Visible Passes

Search period start: 02 May 2016 00:00
Search period end: 12 May 2016 00:00
Orbit: 1192 x 1205 km, 100.1° (Epoch: 01 May)

Date Brightness Start Highest point End Pass type
(mag) Time Alt. Az. Time Alt. Az. Time Alt. Az.
02 May ? 22:00:39 53° SSE 22:02:35 88° WSW 22:09:46 10° NNW visible
03 May ? 21:43:28 45° SE 21:45:44 67° ENE 21:52:48 10° N visible
03 May ? 23:32:55 12° WSW 23:33:03 12° WSW 23:35:33 10° W visible
04 May ? 21:26:17 34° ESE 21:28:53 47° ENE 21:35:39 10° N visible
04 May ? 23:15:44 19° WSW 23:16:14 19° WSW 23:20:54 10° WNW visible
05 May ? 21:09:05 24° ESE 21:12:01 33° ENE 21:18:15 10° NNE visible
05 May ? 22:58:33 26° WSW 22:59:24 27° WSW 23:05:13 10° NW visible
06 May ? 20:51:54 17° ESE 20:55:11 23° ENE 21:00:31 10° NNE visible
06 May ? 22:41:21 36° SW 22:42:34 39° WSW 22:49:05 10° NW visible
07 May ? 20:34:42 11° ESE 20:38:21 15° ENE 20:42:13 10° NE visible
07 May ? 22:24:10 47° SW 22:25:42 55° WSW 22:32:39 10° NNW visible
08 May ? 22:06:58 53° S 22:08:51 78° WSW 22:16:00 10° NNW visible
09 May ? 21:49:46 48° SSE 21:52:00 77° ENE 21:59:08 10° N visible
10 May ? 21:32:34 38° SE 21:35:08 54° ENE 21:42:03 10° N visible
10 May ? 23:22:01 16° WSW 23:22:28 16° WSW 23:26:27 10° WNW visible
11 May ? 21:15:23 28° ESE 21:18:17 38° ENE 21:24:45 10° N visible
11 May ? 23:04:49 23° WSW 23:05:39 23° WSW 23:11:03 10° NW visible
